Location: Ansan
(43.6898°N, 0.7731°E)
Time: 11:44:43
(UTC+00:00)

Cosmos 2219 Rocket - Pass Details

Date: 15 May 2026
Orbit: 826 x 846 km, 71.0° (Epoch: 6 June)

Event Time Altitude Azimuth Distance (km) Brightness Sun altitude
Rises 20:15:03 0° 345° (NNW) 3,403 6.3 -9.9°
Reaches altitude 10° 20:18:34 10° 7° (N) 2,469 5.1 -10.4°
Maximum altitude 20:21:56 16° 44° (NE) 2,083 4.2 -10.8°
Drops below altitude 10° 20:25:17 10° 81° (E) 2,468 4.3 -11.3°
Enters shadow 20:26:31 - 90° (E) 2,757 4.4 -11.5°
